Weather History for Fort Lauderdale, FL

Change the Weather History Date:

Saturday, July 20, 2013

  Actual Average Record
Temperature  
Mean Temperature 81 °F -  
Max Temperature 89 °F 91 °F 98 °F (1981)
Min Temperature 75 °F 74 °F 66 °F (1977)
Cooling Degree Days 16    
Growing Degree Days 31 (Base 50)    
Moisture  
Dew Point 75 °F    
Average Humidity 77    
Maximum Humidity 88    
Minimum Humidity 65    
Precipitation  
Precipitation 0.06 in - - ()
Sea Level Pressure  
Sea Level Pressure 30.08 in    
Wind  
Wind Speed 8 mph (SE)    
Max Wind Speed 17 mph    
Max Gust Speed 23 mph    
Visibility 10 miles    
Events Rain    
Averages and records for this station are not official NWS values.
T = Trace of Precipitation, MM = Missing Value Source: NWS Daily Summary

Daily Weather History Graph

Daily Weather History Graph

Search for Another Location

Airport:

Trip Planner

Search our weather history database for the weather conditions in past years. The results will help you decide how hot, cold, wet, or windy it might be!

Date:

Astronomy

Jul. 20, 2013 Rise Set
Actual Time 6:40 AM EDT 8:13 PM EDT
Civil Twilight 6:15 AM EDT 8:38 PM EDT
Nautical Twilight 5:44 AM EDT 9:09 PM EDT
Astronomical Twilight 5:12 AM EDT 9:40 PM EDT
Moon 6:16 PM EDT (7/20) 4:18 AM EDT (7/20)
Length of Visible Light 14h 23m
Length of Day
13h 33m
Waxing Gibbous, 93% of the Moon is Illuminated
Jul 20
Waxing Gibbous
Jul 22
Full
Jul 29
Last Quarter
Aug 6
New
Aug 14
First Quarter

Hourly Weather History & Observations

Time (EDT) Temp. Heat Index Dew Point Humidity Pressure Visibility Wind Dir Wind Speed Gust Speed Precip Events Conditions
12:53 AM 82.0 °F 89.4 °F 75.9 °F 82% 30.10 in 10.0 mi East 8.1 mph - N/A   Clear
1:53 AM 81.0 °F 87.9 °F 77.0 °F 88% 30.09 in 10.0 mi SE 4.6 mph - N/A   Partly Cloudy
2:53 AM 81.0 °F 87.3 °F 75.9 °F 85% 30.06 in 10.0 mi ESE 8.1 mph - N/A   Clear
3:53 AM 81.0 °F 87.9 °F 77.0 °F 88% 30.05 in 10.0 mi ESE 6.9 mph - N/A   Scattered Clouds
4:53 AM 81.0 °F 87.3 °F 75.9 °F 85% 30.06 in 10.0 mi ESE 5.8 mph - N/A   Partly Cloudy
5:53 AM 81.0 °F 87.3 °F 75.9 °F 85% 30.07 in 10.0 mi ESE 9.2 mph - N/A   Partly Cloudy
6:53 AM 81.0 °F 87.3 °F 75.9 °F 85% 30.07 in 10.0 mi ESE 10.4 mph - N/A   Scattered Clouds
7:53 AM 82.0 °F 89.4 °F 75.9 °F 82% 30.07 in 10.0 mi ESE 5.8 mph - N/A   Scattered Clouds
8:53 AM 84.0 °F 92.6 °F 75.9 °F 76% 30.09 in 10.0 mi ESE 12.7 mph - N/A   Scattered Clouds
9:53 AM 84.0 °F 89.0 °F 71.1 °F 65% 30.11 in 10.0 mi ESE 11.5 mph - 0.00 in   Scattered Clouds
10:00 AM 84.2 °F 89.6 °F 71.6 °F 66% 30.10 in 10.0 mi ESE 12.7 mph - N/A   Mostly Cloudy
10:11 AM 84.2 °F 89.6 °F 71.6 °F 66% 30.10 in 10.0 mi ESE 10.4 mph - N/A   Scattered Clouds
10:53 AM 84.9 °F 94.1 °F 75.9 °F 74% 30.12 in 10.0 mi SE 9.2 mph 18.4 mph N/A   Scattered Clouds
11:53 AM 86.0 °F 95.1 °F 75.0 °F 70% 30.12 in 10.0 mi SSE 11.5 mph 18.4 mph N/A   Scattered Clouds
12:38 PM 87.8 °F 97.6 °F 75.2 °F 66% 30.10 in 10.0 mi SSE 10.4 mph 19.6 mph N/A   Mostly Cloudy
12:53 PM 87.1 °F 96.3 °F 75.0 °F 67% 30.12 in 10.0 mi SSE 17.3 mph 23.0 mph N/A   Scattered Clouds
1:53 PM 86.0 °F 95.1 °F 75.0 °F 70% 30.10 in 10.0 mi SE 15.0 mph 20.7 mph N/A   Scattered Clouds
2:53 PM 87.1 °F 96.3 °F 75.0 °F 67% 30.06 in 10.0 mi SE 12.7 mph - N/A   Scattered Clouds
3:53 PM 84.9 °F 94.1 °F 75.9 °F 74% 30.07 in 10.0 mi SE 10.4 mph - N/A   Scattered Clouds
4:53 PM 86.0 °F 93.8 °F 73.9 °F 67% 30.07 in 10.0 mi South 9.2 mph - N/A   Scattered Clouds
5:53 PM 84.0 °F 91.9 °F 75.0 °F 74% 30.06 in 10.0 mi SSE 8.1 mph - N/A   Scattered Clouds
6:53 PM 82.9 °F 90.8 °F 75.9 °F 79% 30.06 in 10.0 mi SSE 9.2 mph - N/A   Mostly Cloudy
7:00 PM 82.4 °F 89.5 °F 75.2 °F 79% 30.06 in 10.0 mi SSE 5.8 mph - N/A   Scattered Clouds
7:53 PM 75.9 °F - 71.1 °F 85% 30.07 in 10.0 mi SSE 4.6 mph - 0.06 in Rain Light Rain
8:53 PM 75.9 °F - 72.0 °F 87% 30.08 in 10.0 mi Calm Calm - 0.00 in   Clear
9:53 PM 77.0 °F - 72.0 °F 84% 30.09 in 10.0 mi Calm Calm - N/A   Clear
10:53 PM 77.0 °F - 72.0 °F 84% 30.11 in 10.0 mi Calm Calm - N/A   Clear
11:53 PM 78.1 °F - 73.0 °F 84% 30.11 in 10.0 mi Calm Calm - N/A   Scattered Clouds